Flag for U.S.A. Weather past 2 weeks in Tucson, Arizona, U.S.A.

Now
74 °F

Broken clouds.


Feels Like: 73 °F
Forecast: 72 / 87 °F
Wind: 5 mph from Northwest

Location: Davis-Monthan Air Force Base

Current Time: Sep 19, 2014 at 7:43:30 AM

Latest Report: Sep 19, 2014 at 6:58 AM


Visibility: 10 mi

Pressure: 29.80 "Hg

Humidity: 84%

Dew point: 69 °F

Location of TucsonLocation

Historic Weather in Tucson — Graph

°F

Tucson temperature yesterday

Maximum temperature yesterday: 81 °F (at 2:58 PM)
Minimum temperature yesterday: 69 °F (at 4:58 AM)
Average temperature yesterday: 75 °F

Past Weeks' High & Low Weather Summary

 TemperatureHumidityPressure
High97 °F (Sep 12, 2:58 PM)100% (Sep 8, 10:58 AM)30.03 "Hg (Sep 8, 10:58 AM)
Low67 °F (Sep 10, 5:58 AM)21% (Sep 11, 1:58 PM)29.61 "Hg (Sep 4, 3:58 PM)
Average80 °F59%29.82 "Hg
* Reported Sep 4 6:58 AM — Sep 19 6:58 AM, Tucson, Weather by CustomWeather, © 2014

Note: Actual official high and low records may vary slightly from our data, if they occured in-between our weather recording intervals... More about our weather records

Advertising

Tucson weather history for previous 24 hours

 ConditionsComfort  
Time TempWeatherWind HumidityBarometerVisibility
6:58 AM
Sep 19
74 °FBroken clouds.5 mph84%29.80 "Hg10 mi
5:58 AM73 °FPartly cloudy.3 mph86%29.78 "Hg10 mi
4:58 AM73 °FOvercast.No wind85%29.76 "Hg10 mi
3:58 AM73 °FPassing clouds.6 mph85%29.76 "Hg10 mi
2:58 AM73 °FOvercast.6 mph85%29.76 "Hg10 mi
1:58 AM74 °FPassing clouds.5 mph84%29.76 "Hg10 mi
12:58 AM74 °FPartly cloudy.5 mph83%29.77 "Hg10 mi
11:58 PM
Sep 18
75 °FPassing clouds.2 mph84%29.77 "Hg10 mi
10:58 PM75 °FPassing clouds.6 mph80%29.77 "Hg10 mi
9:58 PM76 °FOvercast.2 mph79%29.77 "Hg10 mi
8:58 PM77 °FPassing clouds.2 mph74%29.77 "Hg10 mi
7:58 PM78 °FPassing clouds.5 mph66%29.75 "Hg10 mi
6:58 PM79 °FOvercast.5 mph61%29.72 "Hg10 mi
5:58 PM80 °FOvercast.7 mph60%29.71 "Hg10 mi
4:58 PM80 °FPartly sunny.5 mph61%29.70 "Hg10 mi
3:58 PM80 °FScattered clouds.3 mph60%29.71 "Hg10 mi
2:58 PM81 °FBroken clouds.6 mph58%29.71 "Hg10 mi
1:58 PM80 °FPassing clouds.2 mph61%29.72 "Hg10 mi
12:58 PM80 °FScattered clouds.6 mph61%29.74 "Hg10 mi
11:58 AM77 °FScattered clouds.2 mph66%29.77 "Hg10 mi
10:58 AM76 °FScattered clouds.7 mph74%29.78 "Hg10 mi
7:58 AM69 °FOvercast.5 mph100%29.77 "Hg10 mi
Weather by CustomWeather, © 2014

See weather overviewHow to use our weather pages